Location: Unnamed
(45.1820°N, 67.3015°W)
Time: 07:10:41
(UTC-04:00)

ISS - Pass Details

Date: 15 February 2026
Orbit: 416 x 427 km, 51.6° (Epoch: 5 March)

Event Time Altitude Azimuth Distance (km) Brightness Sun altitude
Exits shadow 06:47:22 - 252° (WSW) 1,600 -1.4 -8.2°
Reaches altitude 10° 06:47:38 10° 253° (WSW) 1,491 -1.5 -8.1°
Maximum altitude 06:50:57 61° 335° (NNW) 477 -3.7 -7.6°
Drops below altitude 10° 06:54:16 10° 57° (ENE) 1,494 -0.2 -7.0°
Sets 06:56:24 0° 61° (ENE) 2,359 0.9 -6.6°
